Location: Olsztyn
(53.7767°N, 20.4765°E)
Time: 14:43:08
(UTC+02:00)

Transit 4A - Visible Passes

Search period start: 16 June 2025 00:00
Search period end: 26 June 2025 00:00
Orbit: 866 x 975 km, 66.8° (Epoch: 15 June)

Date Brightness Start Highest point End Pass type
(mag) Time Alt. Az. Time Alt. Az. Time Alt. Az.
16 Jun 9.6 22:35:15 10° WNW 22:39:42 22° WSW 22:44:04 10° SSW visible
17 Jun 9.9 22:44:46 10° WNW 22:48:11 16° WSW 22:51:33 10° SW visible
18 Jun 10.2 22:55:21 10° W 22:56:36 11° W 22:57:49 10° WSW visible
